Time,TemperatureF,DewpointF,PressureIn,WindDirection,WindDirectionDegrees,WindSpeedMPH,WindSpeedGustMPH,Humidity,HourlyPrecipIn,Conditions,Clouds,dailyrainin,SoftwareType,DateUTC
2013-05-13 00:01:00,41.0,31.0,-100.00,East,100,4.0,4.0,68,0.00,,,-99.99,,2013-05-13 06:01:00,
2013-05-13 00:11:00,40.0,31.0,-100.00,East,100,3.0,4.0,70,0.00,,,-99.99,,2013-05-13 06:11:00,
2013-05-13 00:21:00,41.0,32.0,-100.00,East,95,5.0,6.0,71,0.00,,,-99.99,,2013-05-13 06:21:00,
2013-05-13 00:31:00,40.0,32.0,-100.00,East,95,4.0,6.0,72,0.00,,,-99.99,,2013-05-13 06:31:00,
2013-05-13 00:42:00,40.0,33.0,-100.00,East,85,4.0,7.0,73,0.00,,,-99.99,,2013-05-13 06:42:00,
2013-05-13 00:52:00,39.0,32.0,-100.00,East,95,3.0,6.0,74,0.00,,,-99.99,,2013-05-13 06:52:00,
2013-05-13 01:01:00,39.0,32.0,-100.00,ESE,105,4.0,6.0,76,0.00,,,-99.99,,2013-05-13 07:01:00,
2013-05-13 01:11:00,39.0,33.0,-100.00,East,100,3.0,9.0,77,0.00,,,-99.99,,2013-05-13 07:11:00,
2013-05-13 01:22:00,38.0,33.0,-100.00,East,80,3.0,6.0,78,0.00,,,-99.99,,2013-05-13 07:22:00,
2013-05-13 01:31:00,38.0,33.0,-100.00,East,100,4.0,6.0,79,0.00,,,-99.99,,2013-05-13 07:31:00,
2013-05-13 01:41:00,38.0,33.0,-100.00,East,100,6.0,7.0,80,0.00,,,-99.99,,2013-05-13 07:41:00,
2013-05-13 01:52:00,38.0,33.0,-100.00,East,100,7.0,7.0,82,0.00,,,-99.99,,2013-05-13 07:52:00,
2013-05-13 02:02:00,38.0,33.0,-100.00,East,95,6.0,7.0,82,0.00,,,-99.99,,2013-05-13 08:02:00,
2013-05-13 02:11:00,38.0,33.0,-100.00,East,95,4.0,7.0,83,0.00,,,-99.99,,2013-05-13 08:11:00,
2013-05-13 02:21:00,38.0,34.0,-100.00,East,85,4.0,6.0,83,0.00,,,-99.99,,2013-05-13 08:21:00,
2013-05-13 02:31:00,38.0,33.0,-100.00,East,90,5.0,6.0,83,0.00,,,-99.99,,2013-05-13 08:31:00,
2013-05-13 02:42:00,38.0,33.0,-100.00,East,85,5.0,6.0,84,0.00,,,-99.99,,2013-05-13 08:42:00,
2013-05-13 02:51:00,38.0,34.0,-100.00,East,90,6.0,6.0,84,0.00,,,-99.99,,2013-05-13 08:51:00,
2013-05-13 03:01:00,38.0,34.0,-100.00,East,95,6.0,9.0,85,0.00,,,-99.99,,2013-05-13 09:01:00,
2013-05-13 03:11:00,38.0,34.0,-100.00,East,80,6.0,7.0,85,0.00,,,-99.99,,2013-05-13 09:11:00,
2013-05-13 03:21:00,38.0,34.0,-100.00,East,90,4.0,7.0,85,0.00,,,-99.99,,2013-05-13 09:21:00,
2013-05-13 03:33:00,38.0,34.0,-100.00,East,95,6.0,7.0,85,0.00,,,-99.99,,2013-05-13 09:33:00,
2013-05-13 03:42:00,38.0,34.0,-100.00,East,95,4.0,7.0,85,0.00,,,-99.99,,2013-05-13 09:42:00,
2013-05-13 03:52:00,38.0,34.0,-100.00,ENE,75,6.0,7.0,85,0.00,,,-99.99,,2013-05-13 09:52:00,
2013-05-13 04:03:00,38.0,34.0,-100.00,ENE,70,6.0,7.0,86,0.00,,,-99.99,,2013-05-13 10:03:00,
2013-05-13 04:12:00,38.0,34.0,-100.00,East,80,6.0,8.0,86,0.00,,,-99.99,,2013-05-13 10:12:00,
2013-05-13 04:22:00,37.0,34.0,-100.00,East,90,5.0,7.0,86,0.00,,,-99.99,,2013-05-13 10:22:00,
2013-05-13 04:32:00,37.0,34.0,-100.00,East,95,5.0,6.0,86,0.00,,,-99.99,,2013-05-13 10:32:00,
2013-05-13 04:42:00,37.0,34.0,-100.00,East,90,4.0,6.0,86,0.00,,,-99.99,,2013-05-13 10:42:00,
2013-05-13 04:52:00,37.0,33.0,-100.00,East,85,5.0,7.0,86,0.00,,,-99.99,,2013-05-13 10:52:00,
2013-05-13 05:02:00,37.0,33.0,-100.00,East,90,4.0,7.0,87,0.00,,,-99.99,,2013-05-13 11:02:00,
2013-05-13 05:12:00,37.0,34.0,-100.00,ESE,105,6.0,7.0,88,0.00,,,-99.99,,2013-05-13 11:12:00,
2013-05-13 05:21:00,37.0,34.0,-100.00,East,100,6.0,7.0,88,0.00,,,-99.99,,2013-05-13 11:21:00,
2013-05-13 05:32:00,36.0,33.0,-100.00,East,90,4.0,7.0,88,0.00,,,-99.99,,2013-05-13 11:32:00,
2013-05-13 05:42:00,37.0,34.0,-100.00,ENE,70,5.0,7.0,89,0.00,,,-99.99,,2013-05-13 11:42:00,
2013-05-13 05:52:00,37.0,34.0,-100.00,East,80,6.0,7.0,89,0.00,,,-99.99,,2013-05-13 11:52:00,
2013-05-13 06:01:00,36.0,34.0,-100.00,East,95,6.0,7.0,89,0.00,,,-99.99,,2013-05-13 12:01:00,
2013-05-13 06:11:00,36.0,34.0,-100.00,East,95,4.0,7.0,90,0.00,,,-99.99,,2013-05-13 12:11:00,
2013-05-13 06:21:00,36.0,34.0,-100.00,East,90,6.0,6.0,90,0.00,,,-99.99,,2013-05-13 12:21:00,
2013-05-13 06:32:00,37.0,34.0,-100.00,East,90,5.0,9.0,90,0.00,,,-99.99,,2013-05-13 12:32:00,
2013-05-13 06:42:00,37.0,34.0,-100.00,East,100,6.0,7.0,90,0.00,,,-99.99,,2013-05-13 12:42:00,
2013-05-13 06:51:00,37.0,35.0,-100.00,ENE,75,5.0,7.0,90,0.00,,,-99.99,,2013-05-13 12:51:00,
2013-05-13 07:01:00,38.0,35.0,-100.00,East,85,4.0,7.0,90,0.00,,,-99.99,,2013-05-13 13:01:00,
2013-05-13 07:11:00,38.0,35.0,-100.00,NE,55,7.0,10.0,89,0.00,,,-99.99,,2013-05-13 13:11:00,
2013-05-13 07:21:00,39.0,36.0,-100.00,ENE,75,6.0,9.0,89,0.00,,,-99.99,,2013-05-13 13:21:00,
2013-05-13 07:31:00,39.0,36.0,-100.00,NE,50,7.0,9.0,88,0.00,,,-99.99,,2013-05-13 13:31:00,
2013-05-13 07:42:00,40.0,36.0,-100.00,NE,50,6.0,8.0,86,0.00,,,-99.99,,2013-05-13 13:42:00,
2013-05-13 07:52:00,41.0,37.0,-100.00,ENE,70,5.0,6.0,84,0.00,,,-99.99,,2013-05-13 13:52:00,
2013-05-13 08:02:00,42.0,37.0,-100.00,ENE,75,6.0,7.0,83,0.00,,,-99.99,,2013-05-13 14:02:00,
2013-05-13 08:11:00,43.0,38.0,-100.00,ENE,75,6.0,7.0,81,0.00,,,-99.99,,2013-05-13 14:11:00,
2013-05-13 08:22:00,44.0,37.0,-100.00,ENE,70,6.0,7.0,77,0.00,,,-99.99,,2013-05-13 14:22:00,
2013-05-13 08:32:00,44.0,37.0,-100.00,ENE,60,6.0,7.0,74,0.00,,,-99.99,,2013-05-13 14:32:00,
2013-05-13 08:41:00,46.0,37.0,-100.00,ENE,70,6.0,9.0,68,0.00,,,-99.99,,2013-05-13 14:41:00,
2013-05-13 08:51:00,48.0,36.0,-100.00,NE,50,6.0,9.0,62,0.00,,,-99.99,,2013-05-13 14:51:00,
2013-05-13 09:01:00,49.0,36.0,-100.00,ENE,60,6.0,9.0,60,0.00,,,-99.99,,2013-05-13 15:01:00,
2013-05-13 09:11:00,51.0,36.0,-100.00,ENE,70,6.0,7.0,55,0.00,,,-99.99,,2013-05-13 15:11:00,
2013-05-13 09:21:00,53.0,35.0,-100.00,East,85,4.0,7.0,51,0.00,,,-99.99,,2013-05-13 15:21:00,
2013-05-13 09:31:00,54.0,35.0,-100.00,ENE,60,4.0,6.0,47,0.00,,,-99.99,,2013-05-13 15:31:00,
2013-05-13 09:42:00,55.0,34.0,-100.00,East,90,6.0,7.0,45,0.00,,,-99.99,,2013-05-13 15:42:00,
2013-05-13 09:53:00,56.0,34.0,-100.00,East,90,6.0,8.0,43,0.00,,,-99.99,,2013-05-13 15:53:00,
2013-05-13 10:03:00,58.0,34.0,-100.00,East,85,6.0,7.0,41,0.00,,,-99.99,,2013-05-13 16:03:00,
2013-05-13 10:11:00,59.0,35.0,-100.00,East,95,4.0,7.0,40,0.00,,,-99.99,,2013-05-13 16:11:00,
2013-05-13 10:21:00,60.0,35.0,-100.00,East,80,4.0,7.0,38,0.00,,,-99.99,,2013-05-13 16:21:00,
2013-05-13 10:33:00,61.0,34.0,-100.00,ENE,70,4.0,6.0,36,0.00,,,-99.99,,2013-05-13 16:33:00,
2013-05-13 10:42:00,63.0,34.0,-100.00,ENE,60,2.0,4.0,34,0.00,,,-99.99,,2013-05-13 16:42:00,
2013-05-13 10:52:00,66.0,35.0,-100.00,North,10,2.0,3.0,31,0.00,,,-99.99,,2013-05-13 16:52:00,
2013-05-13 11:02:00,67.0,34.0,-100.00,East,95,0.0,2.0,29,0.00,,,-99.99,,2013-05-13 17:02:00,
2013-05-13 11:12:00,67.0,33.0,-100.00,NNW,345,2.0,4.0,28,0.00,,,-99.99,,2013-05-13 17:12:00,
2013-05-13 11:21:00,67.0,33.0,-100.00,NNW,345,2.0,4.0,28,0.00,,,-99.99,,2013-05-13 17:21:00,
2013-05-13 11:32:00,67.0,33.0,-100.00,NNW,345,2.0,4.0,28,0.00,,,-99.99,,2013-05-13 17:32:00,